Regional Weather Roundup
Issued by NWS

Home | Current Version | Previous Version | Graphics & Text | Print | Product List | Glossary On
Versions: 1 2 3 4 5 6 7 8 9 10 11 12 13 14 15 16 17 18 19 20 21 22 23 24 25 26 27 28 29 30 31 32 33 34 35 36 37 38 39 40 41 42 43 44 45 46 47 48 49 50
000
ASUS43 KTOP 212208
RWRKS

WEATHER ROUNDUP FOR KANSAS
NATIONAL WEATHER SERVICE GOODLAND KS
500 PM CDT FRI JUL 21 2017

NOTE:  "FAIR" INDICATES FEW OR NO CLOUDS BELOW 12,000 FEET WITH NO
SIGNIFICANT WEATHER AND/OR OBSTRUCTIONS TO VISIBILITY.

KSZ001>006-013>018-027>032-041>047-212300-
NORTHWEST KANSAS

CITY           SKY/WX    TMP DP  RH WIND       PRES   REMARKS
GOODLAND       SUNNY     98  54  22 S13       29.91F HX  96
HAYS           SUNNY    106  56  19 SW12G23   29.81F HX 105
HILL CITY      SUNNY    107  51  15 SW10G21   29.81S HX 104
RUSSELL        SUNNY    107  55  18 SW20      29.79F HX 106
$$

KSZ061>065-074>080-084>089-212300-
SOUTHWEST KANSAS

CITY           SKY/WX    TMP DP  RH WIND       PRES   REMARKS
DODGE CITY     MOSUNNY  103  52  18 SW18G28   29.88F HX 100
ELKHART          N/A     97  51  21 S10         N/A
GARDEN CITY    SUNNY    101  52  19 S21       29.89F HX  98
LIBERAL        MOSUNNY  101  58  24 SW20G25   29.92F HX 100
PRATT          SUNNY    101  55  21 SW20G29   29.86F HX  99
$$

KSZ066>073-081>083-090>101-212300-
SOUTHEAST KANSAS

CITY           SKY/WX    TMP DP  RH WIND       PRES   REMARKS
CHANUTE        SUNNY     99  71  40 S16G25    29.89F HX 107
COFFEYVILLE    SUNNY     98  73  44 S20       29.89F HX 108
HUTCHINSON     SUNNY    106  57  20 SW14G23   29.83F HX 105
MEDICINE LODGE   N/A    105  55  19 S14       29.84F HX 104
NEWTON         SUNNY    104  62  25 S20G28    29.85F HX 106
PARSONS        SUNNY     96  73  47 S13       29.90F HX 105
WICHITA INTL   MOSUNNY  104  61  24 SW17      29.83F HX 105
WICHITA JABRA  SUNNY    103  62  26 S18       29.85F HX 105
WICHITA MCCONL SUNNY    103  62  25 SW17G24   29.85F HX 104
WINFIELD       MOSUNNY  102  67  31 S18G25    29.87F HX 107
$$

KSZ007>012-019>026-033>040-048>060-102>105-212300-
NORTHEAST KANSAS

CITY           SKY/WX    TMP DP  RH WIND       PRES   REMARKS
CONCORDIA      SUNNY    104  61  24 SW16      29.77F HX 105
EMPORIA        SUNNY    101  66  31 S17       29.85F HX 105
LAWRENCE       SUNNY    100  71  39 S16G22    29.83F HX 108
MANHATTAN      SUNNY    106  64  25 SW18G29   29.79F HX 109
MARYSVILLE     SUNNY    104  64  27 SW15G30   29.78F HX 107
OLATHE IND     SUNNY     97  75  49 S15       29.87F HX 109
OLATHE EXE     SUNNY     93  76  57 S14       29.87F HX 105
SALINA         SUNNY    109  56  17 S21G30    29.79F HX 108
TOPEKA BILLARD SUNNY    100  72  40 S12G21    29.82S HX 109
TOPEKA FORBES  SUNNY    101  71  38 S18       29.83F HX 109
$$




USA.gov is the U.S. government's official web portal to all federal, state and local government web resources and services.